EW3821 Weather Reports


Display with metric or nautical units.
time (UTC)temp
F
wind
direction
speed
MPH
gust
MPH
rain 1hr
in
rain 24hr
in
rain mn
in
humidity
%
barometer
mb
20260506061507 44 159 0.0 0.0 0.01 0.06 0.06 84 1015.8
20260506044512 42 50 0.0 0.0 0.00 0.05 0.05 80 1014.1
20260506043004 43 50 0.0 0.0 0.00 0.05 0.05 79 1014.0
20260506041557 43 50 0.0 0.0 0.00 0.05 0.05 78 1014.0
20260506040043 45 50 0.0 0.0 0.00 0.05 0.05 75 1013.8
20260506034536 45 50 0.0 0.0 0.00 0.05 0.05 75 1013.5
20260506033025 46 50 0.0 2.0 0.00 0.05 0.05 73 1013.3
20260506031508 48 312 0.0 3.0 0.00 0.05 0.05 69 1013.2
20260506030007 51 311 0.0 0.0 0.00 0.05 0.05 62 1012.8
20260506024606 53 311 0.0 1.0 0.00 0.05 0.05 60 1012.7
20260506023109 54 311 0.0 3.0 0.00 0.05 0.05 58 1012.6
20260506021554 54 321 1.0 5.0 0.00 0.05 0.05 54 1012.5
20260506020056 54 286 1.0 7.0 0.00 0.05 0.05 52 1012.6
20260506014554 54 311 2.0 8.0 0.00 0.05 0.05 54 1012.4
20260506013057 54 336 5.0 10.0 0.00 0.05 0.05 54 1012.5
20260506011556 54 317 6.0 12.0 0.00 0.05 0.05 55 1012.4
20260506010052 55 325 4.0 15.0 0.00 0.05 0.05 53 1012.3
20260506004534 55 342 10.0 15.0 0.00 0.05 0.05 52 1012.3
20260506003034 56 343 6.0 14.0 0.00 0.05 0.05 52 1012.3
20260506001522 57 315 8.0 14.0 0.00 0.05 0.05 51 1012.2
20260506000021 56 298 5.0 11.0 0.00 0.08 0.05 50 1012.2
20260505234521 57 292 5.0 10.0 0.00 0.08 0.05 49 1012.1
20260505233026 56 300 0.0 4.0 0.00 0.08 0.05 51 1012.2
20260505231522 56 290 0.0 4.0 0.00 0.08 0.05 50 1012.3
20260505230019 56 227 0.0 7.0 0.00 0.11 0.05 48 1012.3
20260505224519 58 264 0.0 6.0 0.00 0.11 0.05 47 1012.4
20260505223014 57 252 0.0 7.0 0.00 0.11 0.05 49 1012.6
20260505221511 55 273 0.0 4.0 0.00 0.11 0.05 54 1012.9
20260505220056 52 298 0.0 2.0 0.00 0.11 0.05 57 1013.0
20260505214549 52 286 2.0 4.0 0.00 0.16 0.05 59 1013.2
20260505213033 51 299 0.0 6.0 0.00 0.16 0.05 63 1013.3
20260505211525 50 283 0.0 3.0 0.00 0.16 0.05 68 1013.4
20260505210006 49 298 0.0 2.0 0.00 0.20 0.05 71 1013.4
20260505204505 48 277 0.0 4.0 0.00 0.20 0.05 74 1013.2
20260505203043 48 284 2.0 7.0 0.00 0.20 0.05 78 1013.3
20260505201539 44 294 5.0 10.0 0.00 0.20 0.05 85 1013.4
20260505200031 43 306 4.0 9.0 0.00 0.20 0.05 85 1013.5
20260505194516 42 313 5.0 12.0 0.01 0.20 0.05 86 1013.6
20260505193104 42 306 4.0 8.0 0.01 0.20 0.05 88 1013.5
20260505191607 41 323 8.0 11.0 0.01 0.20 0.05 87 1013.6
20260505190043 42 311 4.0 10.0 0.02 0.20 0.05 87 1013.2
20260505184539 41 319 5.0 10.0 0.01 0.20 0.04 88 1013.0
20260505183039 41 342 4.0 10.0 0.01 0.20 0.04 87 1012.6
20260505181539 41 327 5.0 9.0 0.01 0.20 0.04 88 1012.7
20260505180032 41 315 4.0 10.0 0.00 0.20 0.03 88 1012.3
20260505174529 40 320 6.0 10.0 0.01 0.20 0.03 88 1011.9
20260505173026 40 321 7.0 14.0 0.01 0.20 0.03 88 1011.5
20260505171526 40 342 8.0 15.0 0.01 0.20 0.03 88 1011.3
20260505170007 41 301 7.0 12.0 0.02 0.20 0.03 88 1011.2
20260505164505 41 304 5.0 10.0 0.01 0.19 0.02 87 1011.1
20260505163045 40 324 3.0 8.0 0.01 0.19 0.02 88 1010.7
20260505161546 40 325 5.0 9.0 0.01 0.19 0.02 88 1010.5
20260505153013 40 319 5.0 12.0 0.00 0.18 0.01 89 1010.1
20260505151506 40 311 5.0 8.0 0.00 0.18 0.01 90 1010.0
20260505124517 37 156 1.0 3.0 0.00 0.17 0.00 92 1008.4
20260505123001 38 157 1.0 2.0 0.00 0.17 0.00 92 1008.8
20260505121601 38 157 0.0 0.0 0.00 0.17 0.00 92 1008.8
20260505120118 38 156 0.0 2.0 0.00 0.17 0.00 92 1009.1
20260505114559 38 156 0.0 0.0 0.00 0.17 0.00 92 1009.0
20260505113116 38 156 0.0 1.0 0.00 0.17 0.00 92 1009.1
20260505111558 38 156 0.0 1.0 0.00 0.17 0.00 92 1008.9
20260505110118 38 156 1.0 3.0 0.00 0.17 0.00 93 1008.9
20260505101543 38 163 1.0 2.0 0.00 0.17 0.00 92 1009.0
20260505100017 38 164 0.0 2.0 0.00 0.17 0.00 92 1009.1
20260505094514 38 164 0.0 1.0 0.00 0.17 0.00 92 1009.1
20260505093057 38 163 0.0 0.0 0.00 0.17 0.00 92 1009.2
20260505091554 38 163 0.0 2.0 0.00 0.17 0.00 92 1009.5
20260505090041 38 163 0.0 2.0 0.00 0.17 0.00 92 1009.5
20260505084543 38 164 0.0 3.0 0.00 0.17 0.00 92 1009.6
20260505083013 39 166 1.0 3.0 0.00 0.17 0.00 91 1009.7
20260505081510 39 166 0.0 0.0 0.00 0.17 0.00 91 1009.7
20260505080057 39 167 0.0 0.0 0.00 0.17 0.00 91 1009.9
20260505074556 39 167 1.0 3.0 0.00 0.17 0.00 91 1010.0
20260505073056 39 167 0.0 0.0 0.00 0.17 0.00 90 1010.0
20260505071553 39 167 0.0 2.0 0.00 0.17 0.00 90 1010.0